Location: Petruro
(41.0333°N, 14.7833°E)
Time: 14:45:15
(UTC+00:00)

Cosmos 1570 Rocket - Pass Details

Date: 20 June 2021
Orbit: 763 x 788 km, 74.1° (Epoch: 04 August)

Event Time Altitude Azimuth Distance (km) Brightness Sun altitude
Exits shadow 01:01:43 38° 230° (SW) 1,146 4.4 -19.8°
Maximum altitude 01:03:30 60° 292° (WNW) 871 4.2 -19.7°
Drops below altitude 10° 01:08:41 10° 12° (NNE) 2,305 7.6 -19.2°
Sets 01:11:06 0° 16° (NNE) 3,235 8.7 -19.0°
